Location: ???????
(54.6339°N, 39.4245°E)
Time: 13:50:59
(UTC+00:00)

CENTAUR R/B - Pass Details

Date: 19 May 2025
Orbit: 644 x 1537 km, 63.4° (Epoch: 19 June)

Event Time Altitude Azimuth Distance (km) Brightness Sun altitude
Rises 21:25:27 0° 311° (NW) 4,081 6.3 -15.4°
Reaches altitude 10° 21:28:02 10° 309° (NW) 3,228 5.7 -15.4°
Maximum altitude 21:35:58 64° 231° (SW) 1,544 3.3 -15.3°
Enters shadow 21:44:29 12° 153° (SSE) 3,494 4.9 -15.2°
